When you browse on this site, cookies collect data to enhance your experience and personalize the content and advertising you see.
Visit our Privacy Policy to learn more. By continuing to use the site, you agree to this use of cookies and data.
  • în România
  • Lista ţărilor
  • Pe 7 zile
  • Temperatura apei
  • Hartă satelitară
  • Meteo pe hartă
  • Widget-uri
  • user-avatar
    Intrare

    Meteo pe oră la Arakaka

    Astăzi, 23 Ianuarie, Miercuri

    Timp Temperatura Precipitaţii Vânt Presiune Umiditate
    00:00 +20°C° 0 mm 0 m/s 756 mmHg 98%
    01:00 +20°C° 0 mm 0 m/s 755 mmHg 98%
    02:00 +20°C° 0 mm 0 m/s 755 mmHg 99%
    03:00 +20°C° 0 mm 0 m/s 755 mmHg 99%
    04:00 +20°C° 0 mm 0 m/s 755 mmHg 99%
    05:00 +20°C° 0 mm 0 m/s 755 mmHg 99%
    06:00 +21°C° 0 mm 0 m/s 755 mmHg 96%
    07:00 +22°C° 0 mm 0 m/s 756 mmHg 94%
    08:00 +22°C° 0 mm 0 m/s 756 mmHg 92%
    09:00 +25°C° 0.1 mm 0 m/s 756 mmHg 80%
    10:00 +29°C° 0.1 mm 1 m/s 756 mmHg 69%
    11:00 +31°C° 0.1 mm 1 m/s 757 mmHg 58%
    12:00 +31°C° 0.1 mm 1 m/s 756 mmHg 59%
    13:00 +30°C° 0.1 mm 2 m/s 755 mmHg 60%
    14:00 +30°C° 0.1 mm 2 m/s 755 mmHg 62%
    15:00 +30°C° 0 mm 2 m/s 754 mmHg 61%
    16:00 +30°C° 0 mm 2 m/s 754 mmHg 59%
    17:00 +30°C° 0 mm 2 m/s 754 mmHg 58%
    18:00 +28°C° 0 mm 2 m/s 754 mmHg 68%
    19:00 +26°C° 0 mm 1 m/s 754 mmHg 79%
    20:00 +24°C° 0 mm 1 m/s 754 mmHg 89%
    21:00 +24°C° 0 mm 1 m/s 755 mmHg 92%
    22:00 +21°C° 0 mm 0 m/s 755 mmHg 95%
    23:00 +21°C° 0 mm 0 m/s 756 mmHg 99%

    Mâine, 24 Ianuarie, Joi

    Timp Temperatura Precipitaţii Vânt Presiune Umiditate
    00:00 +21°C° 0.1 mm 0 m/s 755 mmHg 98%
    01:00 +21°C° 0.1 mm 0 m/s 755 mmHg 97%
    02:00 +22°C° 0.1 mm 0 m/s 755 mmHg 96%
    03:00 +21°C° 0.2 mm 0 m/s 754 mmHg 97%
    04:00 +21°C° 0.2 mm 0 m/s 754 mmHg 97%
    05:00 +23°C° 0.2 mm 1 m/s 754 mmHg 98%
    06:00 +24°C° 0 mm 1 m/s 755 mmHg 97%
    07:00 +24°C° 0 mm 1 m/s 755 mmHg 95%
    08:00 +25°C° 0 mm 1 m/s 755 mmHg 93%
    09:00 +27°C° 0.1 mm 1 m/s 756 mmHg 82%
    10:00 +29°C° 0.1 mm 2 m/s 756 mmHg 70%
    11:00 +31°C° 0.1 mm 2 m/s 756 mmHg 58%
    12:00 +30°C° 0.1 mm 2 m/s 755 mmHg 61%
    13:00 +29°C° 0.1 mm 2 m/s 755 mmHg 63%
    14:00 +29°C° 0.1 mm 2 m/s 754 mmHg 65%
    15:00 +28°C° 0 mm 1 m/s 754 mmHg 67%
    16:00 +28°C° 0 mm 1 m/s 754 mmHg 69%
    17:00 +27°C° 0 mm 1 m/s 753 mmHg 71%
    18:00 +26°C° 0 mm 1 m/s 754 mmHg 77%
    19:00 +25°C° 0 mm 1 m/s 754 mmHg 84%
    20:00 +24°C° 0 mm 1 m/s 755 mmHg 90%
    21:00 +23°C° 0 mm 1 m/s 755 mmHg 93%
    22:00 +20°C° 0 mm 0 m/s 755 mmHg 95%
    23:00 +20°C° 0 mm 0 m/s 755 mmHg 98%

    Poimâine, 25 Ianuarie, Vineri

    Timp Temperatura Precipitaţii Vânt Presiune Umiditate
    00:00 +20°C° 0 mm 0 m/s 755 mmHg 98%
    01:00 +20°C° 0 mm 0 m/s 755 mmHg 99%
    02:00 +19°C° 0 mm 0 m/s 754 mmHg 99%
    03:00 +19°C° 0 mm 0 m/s 754 mmHg 99%
    04:00 +19°C° 0 mm 0 m/s 754 mmHg 99%
    05:00 +19°C° 0 mm 0 m/s 754 mmHg 99%
    06:00 +20°C° 0 mm 0 m/s 755 mmHg 94%
    07:00 +21°C° 0 mm 0 m/s 755 mmHg 89%
    08:00 +23°C° 0 mm 0 m/s 756 mmHg 84%
    09:00 +27°C° 0 mm 1 m/s 756 mmHg 69%
    10:00 +30°C° 0 mm 1 m/s 756 mmHg 55%
    11:00 +32°C° 0 mm 2 m/s 756 mmHg 40%
    12:00 +34°C° 0 mm 2 m/s 755 mmHg 39%
    13:00 +35°C° 0 mm 2 m/s 754 mmHg 39%
    14:00 +35°C° 0 mm 2 m/s 753 mmHg 38%
    15:00 +34°C° 0 mm 2 m/s 752 mmHg 41%
    16:00 +34°C° 0 mm 2 m/s 752 mmHg 44%
    17:00 +32°C° 0 mm 2 m/s 752 mmHg 47%
    18:00 +30°C° 0 mm 2 m/s 752 mmHg 56%
    19:00 +28°C° 0 mm 2 m/s 753 mmHg 64%
    20:00 +26°C° 0 mm 2 m/s 753 mmHg 72%
    21:00 +25°C° 0 mm 1 m/s 754 mmHg 80%
    22:00 +23°C° 0 mm 1 m/s 754 mmHg 88%
    23:00 +22°C° 0 mm 1 m/s 754 mmHg 96%

    26 Ianuarie, Sâmbătă

    Timp Temperatura Precipitaţii Vânt Presiune Umiditate
    00:00 +20°C° 0 mm 0 m/s 754 mmHg 97%
    01:00 +19°C° 0 mm 0 m/s 754 mmHg 98%
    02:00 +19°C° 0 mm 0 m/s 753 mmHg 99%
    03:00 +19°C° 0 mm 0 m/s 753 mmHg 99%
    04:00 +19°C° 0 mm 0 m/s 753 mmHg 99%
    05:00 +18°C° 0 mm 0 m/s 753 mmHg 99%
    06:00 +20°C° 0 mm 0 m/s 754 mmHg 94%
    07:00 +21°C° 0 mm 0 m/s 755 mmHg 90%
    08:00 +22°C° 0 mm 0 m/s 755 mmHg 86%
    09:00 +27°C° 0 mm 1 m/s 755 mmHg 71%
    10:00 +30°C° 0 mm 1 m/s 755 mmHg 56%
    11:00 +33°C° 0 mm 1 m/s 755 mmHg 42%
    12:00 +35°C° 0 mm 2 m/s 754 mmHg 37%
    13:00 +36°C° 0 mm 2 m/s 753 mmHg 31%
    14:00 +37°C° 0 mm 2 m/s 752 mmHg 26%
    15:00 +36°C° 0 mm 2 m/s 752 mmHg 28%
    16:00 +36°C° 0 mm 2 m/s 751 mmHg 31%
    17:00 +35°C° 0 mm 2 m/s 751 mmHg 33%
    18:00 +31°C° 0 mm 2 m/s 751 mmHg 45%
    19:00 +28°C° 0 mm 2 m/s 752 mmHg 56%
    20:00 +26°C° 0 mm 2 m/s 752 mmHg 68%
    21:00 +25°C° 0 mm 2 m/s 753 mmHg 77%
    22:00 +23°C° 0 mm 1 m/s 753 mmHg 87%
    23:00 +22°C° 0 mm 1 m/s 753 mmHg 96%

    27 Ianuarie, Duminică

    Timp Temperatura Precipitaţii Vânt Presiune Umiditate
    00:00 +20°C° 0 mm 0 m/s 753 mmHg 97%
    01:00 +19°C° 0 mm 0 m/s 753 mmHg 98%
    02:00 +19°C° 0 mm 0 m/s 753 mmHg 99%
    03:00 +19°C° 0 mm 0 m/s 753 mmHg 99%
    04:00 +19°C° 0 mm 0 m/s 753 mmHg 99%
    05:00 +19°C° 0 mm 0 m/s 753 mmHg 99%
    06:00 +20°C° 0 mm 0 m/s 753 mmHg 94%
    07:00 +21°C° 0 mm 0 m/s 754 mmHg 90%
    08:00 +23°C° 0 mm 0 m/s 754 mmHg 85%
    09:00 +27°C° 0 mm 1 m/s 755 mmHg 76%
    10:00 +29°C° 0 mm 1 m/s 755 mmHg 66%
    11:00 +31°C° 0 mm 1 m/s 755 mmHg 56%
    12:00 +32°C° 0 mm 1 m/s 754 mmHg 52%
    13:00 +33°C° 0 mm 1 m/s 753 mmHg 47%
    14:00 +35°C° 0 mm 1 m/s 752 mmHg 42%
    15:00 +35°C° 0 mm 2 m/s 751 mmHg 46%
    16:00 +34°C° 0 mm 2 m/s 751 mmHg 49%
    17:00 +32°C° 0 mm 2 m/s 750 mmHg 52%
    18:00 +30°C° 0 mm 2 m/s 751 mmHg 64%
    19:00 +28°C° 0 mm 2 m/s 752 mmHg 75%
    20:00 +26°C° 0 mm 2 m/s 752 mmHg 86%
    21:00 +25°C° 0 mm 1 m/s 753 mmHg 90%
    22:00 +25°C° 0 mm 1 m/s 753 mmHg 94%
    23:00 +24°C° 0 mm 1 m/s 753 mmHg 97%

    28 Ianuarie, Luni

    Timp Temperatura Precipitaţii Vânt Presiune Umiditate
    00:00 +24°C° 0.2 mm 1 m/s 753 mmHg 98%
    01:00 +24°C° 0.2 mm 1 m/s 753 mmHg 99%
    02:00 +24°C° 0.2 mm 1 m/s 752 mmHg 99%
    03:00 +22°C° 0.2 mm 0 m/s 752 mmHg 99%
    04:00 +21°C° 0.2 mm 0 m/s 752 mmHg 99%
    05:00 +21°C° 0.2 mm 0 m/s 752 mmHg 99%
    06:00 +22°C° 0 mm 0 m/s 753 mmHg 98%
    07:00 +24°C° 0 mm 1 m/s 753 mmHg 96%
    08:00 +25°C° 0 mm 1 m/s 754 mmHg 95%
    09:00 +27°C° 0.1 mm 1 m/s 754 mmHg 82%
    10:00 +30°C° 0.1 mm 1 m/s 754 mmHg 69%
    11:00 +32°C° 0.1 mm 2 m/s 754 mmHg 56%
    12:00 +34°C° 0.2 mm 2 m/s 753 mmHg 55%
    13:00 +34°C° 0.2 mm 2 m/s 753 mmHg 54%
    14:00 +34°C° 0.2 mm 2 m/s 752 mmHg 53%
    15:00 +32°C° 0.3 mm 2 m/s 751 mmHg 58%
    16:00 +31°C° 0.3 mm 2 m/s 751 mmHg 62%
    17:00 +30°C° 0.3 mm 2 m/s 751 mmHg 67%
    18:00 +29°C° 0 mm 2 m/s 751 mmHg 72%
    19:00 +27°C° 0 mm 2 m/s 752 mmHg 77%
    20:00 +26°C° 0 mm 1 m/s 752 mmHg 82%
    21:00 +25°C° 0 mm 1 m/s 753 mmHg 87%
    22:00 +24°C° 0 mm 1 m/s 753 mmHg 92%
    23:00 +24°C° 0 mm 1 m/s 753 mmHg 96%
    Arată mai mult